Flag for Argentina Weather past 2 weeks in Zárate, Buenos Aires, Argentina

Now
59 °F

Sunny.


Feels Like: 56 °F
Forecast: 45 / 67 °F
Wind: 14 mph from Southeast

Location: Buenos Aires Airport

Current Time: Oct 2, 2014 at 1:59:28 PM

Latest Report: Oct 2, 2014 at 1:00 PM


Visibility: 10 mi

Pressure: 30.42 "Hg

Humidity: 59%

Dew point: 45 °F

Location of ZárateLocation

Historic Weather in Zárate — Graph

°F

Zárate temperature yesterday

Maximum temperature yesterday: 63 °F (at 12:00 AM)
Minimum temperature yesterday: 54 °F (at 10:00 PM)
Average temperature yesterday: 58 °F

Past Weeks' High & Low Weather Summary

 TemperatureHumidityPressure
High73 °F (Sep 19, 6:00 PM)100% (Sep 29, 3:00 AM)30.45 "Hg (Sep 29, 3:00 AM)
Low50 °F (Sep 26, 6:00 AM)22% (Sep 26, 6:00 PM)29.65 "Hg (Sep 25, 4:00 PM)
Average62 °F69%30.02 "Hg
* Reported Sep 17 1:00 PM — Oct 2 1:00 PM, Zárate, Weather by CustomWeather, © 2014

Note: Actual official high and low records may vary slightly from our data, if they occured in-between our weather recording intervals... More about our weather records

Advertising

Zárate weather history for previous 24 hours

 ConditionsComfort  
Time TempWeatherWind HumidityBarometerVisibility
1:00 PM
Oct 2
59 °FSunny.14 mph59%30.42 "Hg10 mi
12:00 PM57 °FBroken clouds.14 mph67%30.42 "HgN/A
11:00 AM55 °FScattered clouds.12 mph67%30.45 "HgN/A
10:00 AM52 °FBroken clouds.16 mph77%30.45 "HgN/A
9:00 AM52 °FBroken clouds.16 mph77%30.45 "HgN/A
8:00 AM50 °FScattered clouds.14 mph67%30.45 "HgN/A
7:00 AM50 °FPassing clouds.14 mph67%30.42 "HgN/A
6:00 AM50 °FPassing clouds.14 mph71%30.39 "HgN/A
5:00 AM50 °FClear.10 mph71%30.39 "Hg10 mi
4:00 AM50 °FClear.10 mph67%30.39 "Hg10 mi
1:00 AM52 °FPassing clouds.17 mph72%30.39 "HgN/A
12:00 AM54 °FPassing clouds.17 mph58%30.39 "HgN/A
11:00 PM
Oct 1
54 °FPassing clouds.18 mph63%30.39 "HgN/A
10:00 PM54 °FPassing clouds.21 mph63%30.39 "HgN/A
9:00 PM55 °FPassing clouds.20 mph67%30.36 "HgN/A
8:00 PM57 °FPassing clouds.22 mph67%30.36 "HgN/A
7:00 PM57 °FPassing clouds.21 mph72%30.33 "HgN/A
6:00 PM59 °FPassing clouds.22 mph68%30.30 "HgN/A
5:00 PM59 °FScattered clouds.14 mph72%30.30 "HgN/A
4:00 PM59 °FPartly sunny.9 mph72%30.30 "HgN/A
3:00 PM59 °FPartly sunny.8 mph68%30.30 "Hg5 mi
2:00 PM57 °FOvercast.9 mph77%30.30 "Hg5 mi
1:00 PM57 °FOvercast.10 mph72%30.30 "Hg5 mi
Weather by CustomWeather, © 2014

See weather overviewHow to use our weather pages